Tracking 30995 objects as of 5-Jul-2025
HD Live streaming from Space Station
objects crossing your sky now

TOPEX/POSEIDON

Track TOPEX/POSEIDON now!
10-day predictions
TOPEX/POSEIDON is classified as:


NORAD ID: 22076
Int'l Code: 1992-052A
Perigee: 1,338.3 km
Apogee: 1,350.2 km
Inclination: 66.0 °
Period: 112.4 minutes
Semi major axis: 7715 km
RCS: 8.6832 m2 (large)
Launch date: August 10, 1992
Source: United States (US)
Launch site: FRENCH GUIANA (FRGUI)
Your satellite tracking list
SATCOM K1 R/B(PAM-D2)
Track 1 satellite(s)




NASA's NSSDC Master Catalog

Two Line Element Set (TLE):
1 22076U 92052A   25186.33536269 -.00000050  00000-0  46719-4 0  9991
2 22076  66.0403 132.8022 0007736 271.0048 247.7245 12.81082815539050
Source of the keplerian elements: AFSPC